EWG94PJ EDDS-EPKK

Flight info

Callsign EWG94PJ
Flight time N/A
Altitude 33000
Route ABTAL4B ABTAL L173 RIXED Y161 RIDAR DCT MIQ DCT ALUTU DCT BIBAG Q104 AKIMA DCT MASUR DCT NAVTI DCT PADKA
Aircraft A21N/M-SDE2E3FGHIRWXY/LB1

Departure

Time 2026-05-07 12:28
Airport Stuttgart Airport (EDDS)

Arrival

Time N/A
Airport Kraków John Paul II International Airport (EPKK)
Time Latitude Longitude Altitude Speed Heading
2026-05-07 11:45 48.68743 9.19394 1317 ft 0 kts 164°
2026-05-07 12:18 48.68735 9.19397 1316 ft 2 kts 164°
2026-05-07 12:19 48.68717 9.19406 1315 ft 4 kts 164°
2026-05-07 12:19 48.68692 9.19435 1314 ft 6 kts 111°
2026-05-07 12:19 48.68693 9.19507 1311 ft 8 kts 76°
2026-05-07 12:19 48.68711 9.19602 1309 ft 10 kts 74°
2026-05-07 12:20 48.68732 9.19718 1305 ft 13 kts 74°
2026-05-07 12:20 48.68758 9.19856 1302 ft 15 kts 69°
2026-05-07 12:20 48.68819 9.19990 1300 ft 16 kts 53°
2026-05-07 12:20 48.68861 9.20155 1297 ft 17 kts 75°
2026-05-07 12:21 48.68894 9.20336 1293 ft 18 kts 74°
2026-05-07 12:21 48.68930 9.20526 1288 ft 19 kts 74°
2026-05-07 12:21 48.68968 9.20721 1283 ft 20 kts 74°
2026-05-07 12:21 48.69007 9.20926 1278 ft 21 kts 73°
2026-05-07 12:22 48.69048 9.21139 1275 ft 21 kts 73°
2026-05-07 12:22 48.69090 9.21360 1268 ft 22 kts 73°
2026-05-07 12:22 48.69134 9.21590 1271 ft 23 kts 74°
2026-05-07 12:22 48.69179 9.21827 1263 ft 24 kts 74°
2026-05-07 12:23 48.69225 9.22074 1260 ft 25 kts 74°
2026-05-07 12:23 48.69272 9.22327 1245 ft 25 kts 74°
2026-05-07 12:23 48.69321 9.22585 1239 ft 26 kts 74°
2026-05-07 12:23 48.69322 9.22587 1236 ft 1 kts 72°
2026-05-07 12:24 48.69332 9.22634 1238 ft 7 kts 71°
2026-05-07 12:24 48.69349 9.22705 1236 ft 8 kts 71°
2026-05-07 12:24 48.69366 9.22792 1234 ft 10 kts 73°
2026-05-07 12:24 48.69386 9.22898 1233 ft 12 kts 73°
2026-05-07 12:25 48.69410 9.23026 1231 ft 14 kts 75°
2026-05-07 12:25 48.69436 9.23174 1227 ft 15 kts 75°
2026-05-07 12:25 48.69466 9.23341 1224 ft 17 kts 74°
2026-05-07 12:25 48.69502 9.23525 1220 ft 19 kts 73°
2026-05-07 12:26 48.69540 9.23726 1216 ft 21 kts 74°
2026-05-07 12:26 48.69580 9.23942 1211 ft 22 kts 74°
2026-05-07 12:26 48.69607 9.24168 1205 ft 23 kts 112°
2026-05-07 12:26 48.69496 9.24323 1195 ft 23 kts 166°
2026-05-07 12:27 48.69371 9.24219 1198 ft 25 kts 256°
2026-05-07 12:27 48.69281 9.23730 1208 ft 82 kts 256°
2026-05-07 12:27 48.69067 9.22616 1230 ft 139 kts 255°
2026-05-07 12:27 48.68774 9.21045 1364 ft 163 kts 255°
2026-05-07 12:28 48.68462 9.19423 2047 ft 163 kts 258°
2026-05-07 12:28 48.68156 9.17698 2561 ft 176 kts 256°
2026-05-07 12:28 48.67792 9.15845 3103 ft 191 kts 254°
2026-05-07 12:28 48.67394 9.13844 3713 ft 208 kts 254°
2026-05-07 12:29 48.66954 9.11656 4248 ft 228 kts 254°
2026-05-07 12:29 48.66322 9.09412 5015 ft 237 kts 233°
2026-05-07 12:29 48.65024 9.07859 5918 ft 244 kts 206°
2026-05-07 12:29 48.63347 9.07333 6834 ft 252 kts 180°
2026-05-07 12:30 48.61648 9.08037 7718 ft 259 kts 152°
2026-05-07 12:30 48.60317 9.09899 8619 ft 267 kts 123°
2026-05-07 12:30 48.59713 9.12560 9518 ft 274 kts 94°
2026-05-07 12:30 48.60028 9.15477 10047 ft 293 kts 63°
2026-05-07 12:31 48.61186 9.18066 10442 ft 313 kts 52°
2026-05-07 12:31 48.62171 9.21123 10756 ft 338 kts 76°
2026-05-07 12:31 48.62363 9.24742 11264 ft 352 kts 89°
2026-05-07 12:31 48.62796 9.28400 12063 ft 357 kts 72°
2026-05-07 12:32 48.63640 9.31959 12929 ft 362 kts 69°
2026-05-07 12:32 48.64586 9.35514 13770 ft 366 kts 67°
2026-05-07 12:32 48.65572 9.39081 14497 ft 370 kts 67°
2026-05-07 12:32 48.66579 9.42680 15205 ft 373 kts 66°
2026-05-07 12:33 48.68632 9.49991 16549 ft 381 kts 66°
2026-05-07 12:33 48.69671 9.53701 17207 ft 385 kts 66°
2026-05-07 12:33 48.70719 9.57445 17830 ft 389 kts 66°
2026-05-07 12:34 48.71764 9.61182 18394 ft 393 kts 65°
2026-05-07 12:34 48.72832 9.65005 18954 ft 395 kts 65°
2026-05-07 12:34 48.73919 9.68906 19499 ft 398 kts 65°
2026-05-07 12:34 48.74983 9.72735 20011 ft 400 kts 65°
2026-05-07 12:35 48.76065 9.76632 20504 ft 402 kts 65°
2026-05-07 12:35 48.77153 9.80559 20996 ft 405 kts 65°
2026-05-07 12:35 48.78245 9.84505 21472 ft 407 kts 65°
2026-05-07 12:35 48.79345 9.88482 21919 ft 410 kts 65°
2026-05-07 12:36 48.80451 9.92480 22337 ft 412 kts 65°
2026-05-07 12:36 48.81561 9.96499 22715 ft 413 kts 65°
2026-05-07 12:36 48.82659 10.00493 23066 ft 415 kts 65°
2026-05-07 12:36 48.83772 10.04544 23385 ft 417 kts 65°
2026-05-07 12:37 48.84714 10.08729 23650 ft 420 kts 74°
2026-05-07 12:37 48.85135 10.13149 23865 ft 424 kts 86°
2026-05-07 12:37 48.84983 10.17583 24071 ft 426 kts 95°
2026-05-07 12:37 48.84606 10.22063 24271 ft 427 kts 96°
2026-05-07 12:38 48.84208 10.26535 24426 ft 428 kts 96°
2026-05-07 12:38 48.83823 10.31015 24550 ft 429 kts 96°
2026-05-07 12:38 48.83404 10.35499 24649 ft 430 kts 99°
2026-05-07 12:38 48.82610 10.39873 24709 ft 431 kts 110°
2026-05-07 12:39 48.81286 10.43948 24727 ft 431 kts 122°
2026-05-07 12:39 48.79481 10.47585 24729 ft 431 kts 131°
2026-05-07 12:39 48.77428 10.50898 24714 ft 431 kts 135°
2026-05-07 12:39 48.75328 10.54144 24719 ft 430 kts 135°
2026-05-07 12:40 48.73241 10.57395 24721 ft 429 kts 135°
2026-05-07 12:40 48.71179 10.60644 24685 ft 428 kts 135°
2026-05-07 12:40 48.69154 10.63863 24625 ft 427 kts 134°
2026-05-07 12:40 48.67108 10.67120 24557 ft 425 kts 134°
2026-05-07 12:41 48.65076 10.70351 24496 ft 422 kts 134°
2026-05-07 12:41 48.63053 10.73574 24431 ft 420 kts 134°
2026-05-07 12:41 48.61225 10.76998 24371 ft 418 kts 124°
2026-05-07 12:41 48.59823 10.80831 24310 ft 416 kts 113°
2026-05-07 12:42 48.58930 10.84963 24265 ft 412 kts 102°
2026-05-07 12:42 48.58559 10.89228 24219 ft 407 kts 92°
2026-05-07 12:42 48.58481 10.93489 24176 ft 403 kts 90°
2026-05-07 12:42 48.58434 10.97709 24131 ft 400 kts 90°
2026-05-07 12:43 48.58373 11.01888 24079 ft 396 kts 91°
2026-05-07 12:43 48.58297 11.05972 24032 ft 392 kts 91°
2026-05-07 12:43 48.58211 11.10068 23988 ft 388 kts 91°
2026-05-07 12:43 48.58122 11.14147 23948 ft 385 kts 91°
2026-05-07 12:44 48.58031 11.18167 23912 ft 382 kts 91°
2026-05-07 12:44 48.57941 11.22157 23877 ft 379 kts 91°
2026-05-07 12:44 48.57849 11.26130 23838 ft 376 kts 91°
2026-05-07 12:44 48.57757 11.30063 23800 ft 373 kts 92°
2026-05-07 12:45 48.57662 11.33967 23777 ft 370 kts 92°
2026-05-07 12:45 48.57566 11.37832 23745 ft 366 kts 92°
2026-05-07 12:45 48.57472 11.41654 23705 ft 363 kts 92°
2026-05-07 12:45 48.57379 11.45447 23672 ft 359 kts 92°
2026-05-07 12:46 48.57286 11.49200 23637 ft 356 kts 92°
2026-05-07 12:46 48.57191 11.52922 23597 ft 353 kts 92°
2026-05-07 12:46 48.57095 11.56611 23558 ft 350 kts 92°
2026-05-07 12:46 48.56919 11.60252 23511 ft 346 kts 99°
2026-05-07 12:47 48.56477 11.63756 23469 ft 342 kts 103°
2026-05-07 12:47 48.55958 11.67252 23424 ft 339 kts 103°
2026-05-07 12:47 48.55438 11.70714 23383 ft 336 kts 103°
2026-05-07 12:47 48.54931 11.74129 23345 ft 332 kts 103°
2026-05-07 12:48 48.54432 11.77519 23300 ft 329 kts 104°
2026-05-07 12:48 48.53939 11.80866 23256 ft 326 kts 104°
2026-05-07 12:48 48.53450 11.84193 23212 ft 322 kts 104°
2026-05-07 12:48 48.52967 11.87482 23164 ft 320 kts 104°
2026-05-07 12:49 48.52485 11.90747 23048 ft 319 kts 104°
2026-05-07 12:49 48.52008 11.94002 22985 ft 316 kts 104°
2026-05-07 12:49 48.51535 11.97227 22948 ft 314 kts 104°
2026-05-07 12:49 48.51070 12.00379 22909 ft 311 kts 104°
2026-05-07 12:50 48.50610 12.03491 22328 ft 300 kts 104°
2026-05-07 12:50 48.50132 12.06685 21522 ft 324 kts 104°
2026-05-07 12:50 48.49609 12.10136 20929 ft 342 kts 104°
2026-05-07 12:50 48.49070 12.13654 20437 ft 355 kts 105°
2026-05-07 12:51 48.48512 12.17280 19998 ft 353 kts 105°
2026-05-07 12:51 48.47949 12.20913 19577 ft 361 kts 105°
2026-05-07 12:51 48.47369 12.24635 19219 ft 366 kts 105°
2026-05-07 12:51 48.46784 12.28371 18881 ft 365 kts 105°
2026-05-07 12:52 48.46200 12.32090 18545 ft 364 kts 105°
2026-05-07 12:52 48.45617 12.35798 18192 ft 363 kts 105°